Location: Tel Aviv
(32.0670°N, 34.7670°E)
Time: 23:07:33
(UTC+03:00)

DUCHIFAT 1 - Visible Passes

Search period start: 30 March 2023 00:00
Search period end: 09 April 2023 00:00
Orbit: 569 x 586 km, 98.0° (Epoch: 30 March)

Date Brightness Start Highest point End Pass type
(mag) Time Alt. Az. Time Alt. Az. Time Alt. Az.
30 Mar ? 04:20:54 10° N 04:21:16 12° N 04:21:16 12° N visible
31 Mar ? 04:25:09 10° N 04:25:37 13° NNW 04:25:37 13° NNW visible
01 Apr ? 04:29:22 10° NNW 04:29:57 13° NNW 04:29:57 13° NNW visible
02 Apr ? 04:33:36 10° NNW 04:34:15 13° NNW 04:34:15 13° NNW visible
03 Apr ? 04:37:48 10° NNW 04:38:30 13° NNW 04:38:30 13° NNW visible
04 Apr ? 04:42:01 10° NNW 04:42:46 13° NNW 04:42:46 13° NNW visible
05 Apr ? 03:10:40 10° NE 03:10:42 10° NE 03:10:42 10° NE visible
05 Apr ? 04:46:13 10° NNW 04:46:58 13° NW 04:46:58 13° NW visible
06 Apr ? 03:14:33 10° NE 03:14:53 12° NE 03:14:53 12° NE visible
06 Apr ? 04:50:25 10° NNW 04:51:10 13° NW 04:51:10 13° NW visible
07 Apr ? 03:18:26 10° NE 03:19:04 14° NE 03:19:04 14° NE visible
07 Apr ? 04:54:37 10° NNW 04:55:20 12° NW 04:55:20 12° NW visible
08 Apr ? 03:22:18 10° NNE 03:23:12 15° NE 03:23:12 15° NE visible
08 Apr ? 04:58:51 10° NW 04:59:28 12° NW 04:59:28 12° NW visible
